User: anonymous
Location: Vancouver
(49.2500°N, 123.1330°W)
Time: 02:48:36
(UTC-07:00)
Language:

Oscar 11 - Orbit

View from above orbital plane
View from above orbital plane
View from above satellite
View from above satellite

Ground track
Ground track

The orbit data is extracted from the following two-line orbital elements,

1 14781U 84021B   14272.23434470  .00001053  00000-0  13997-3 0  6223
2 14781 097.8409 330.2756 0008693 192.7826 167.3168 14.81762134643379
Epoch (UTC): 29 September 2014 05:37:27
Eccentricity: 0.0008693
inclination: 97.8409°
perigee height: 617 km
apogee height: 630 km
right ascension of ascending node: 330.2756°
argument of perigee: 192.7826°
revolutions per day: 14.81762134
mean anomaly at epoch: 167.3168°
orbit number at epoch: 64337

The dashed part of the orbit path shows where the satellite is in the earth's shadow,  

DLR